GW5298 Weather Reports


time (UTC)temp
F
wind
direction
speed
knots
gust
knots
rain 1hr
in
rain 24hr
in
rain mn
in
humidity
%
barometer
mb
20260505152916 58 327 0.9 0.9 0.00 0.00 0.00 53 969.0
20260505152416 56 328 0.9 1.7 0.00 0.00 0.00 57 969.0
20260505151925 56 329 1.7 1.7 0.00 0.00 0.00 53 969.0
20260505151416 57 327 0.9 1.7 0.00 0.00 0.00 55 969.0
20260505150915 57 326 0.0 0.0 0.00 0.00 0.00 54 969.0
20260505150416 57 326 0.0 0.9 0.00 0.00 0.00 52 969.0
20260505140415 54 325 0.0 0.9 0.00 0.00 0.00 53 968.0
20260505124915 46 324 0.0 0.9 0.00 0.00 0.00 65 968.0
20260505124415 46 324 0.0 0.9 0.00 0.00 0.00 65 968.0
20260505123915 46 325 0.0 0.0 0.00 0.00 0.00 66 967.0
20260505123416 46 324 0.0 0.9 0.00 0.00 0.00 67 968.0
20260505122916 46 324 0.0 0.9 0.00 0.00 0.00 66 967.0
20260505122415 47 325 0.0 0.9 0.00 0.00 0.00 65 968.0
20260505121915 46 325 0.0 0.9 0.00 0.00 0.00 65 968.0
20260505121415 46 324 0.0 0.9 0.00 0.00 0.00 67 967.0
20260505120915 47 324 0.0 0.0 0.00 0.00 0.00 66 968.0
20260505120415 47 324 0.0 0.9 0.00 0.00 0.00 65 967.0
20260505115916 47 324 0.0 0.0 0.00 0.00 0.00 65 967.0
20260505115416 47 324 0.0 0.9 0.00 0.00 0.00 65 967.0
20260505114915 47 324 0.9 1.7 0.00 0.00 0.00 65 967.0
20260505114415 47 325 0.0 0.9 0.00 0.00 0.00 66 967.0
20260505113915 47 324 0.9 0.9 0.00 0.00 0.00 66 967.0
20260505113415 47 326 0.0 0.9 0.00 0.00 0.00 66 968.0
20260505112915 47 325 0.0 0.9 0.00 0.00 0.00 66 967.0
20260505112415 48 324 0.0 0.0 0.00 0.00 0.00 65 967.0
20260505111917 48 324 0.9 0.9 0.00 0.00 0.00 64 967.0
20260505111416 47 325 0.9 0.9 0.00 0.00 0.00 65 968.0
20260505110915 47 325 0.9 0.9 0.00 0.00 0.00 65 967.0
20260505110415 47 325 0.0 0.9 0.00 0.00 0.00 66 967.0
20260505101915 49 324 0.0 0.9 0.00 0.00 0.00 63 967.0
20260505101415 49 324 0.0 0.9 0.00 0.00 0.00 64 967.0
20260505100916 48 325 0.0 0.0 0.00 0.00 0.00 66 966.0
20260505100416 49 324 0.0 0.9 0.00 0.00 0.00 64 966.0
20260505095915 48 324 0.0 0.9 0.00 0.00 0.00 65 967.0
20260505095415 48 325 0.0 0.0 0.00 0.00 0.00 66 967.0
20260505094915 48 325 0.0 0.0 0.00 0.00 0.00 67 966.0
20260505094415 48 325 0.0 0.9 0.00 0.00 0.00 67 966.0
20260505093916 48 326 0.0 0.0 0.00 0.00 0.00 67 967.0
20260505093415 49 326 0.0 0.0 0.00 0.00 0.00 65 966.0
20260505092916 49 326 0.0 0.9 0.00 0.00 0.00 65 967.0
20260505092415 48 326 0.0 0.0 0.00 0.00 0.00 66 967.0
20260505091915 50 326 0.9 0.9 0.00 0.00 0.00 64 967.0
20260505091423 49 326 0.0 0.0 0.00 0.00 0.00 63 966.0
20260505090915 50 326 0.9 0.9 0.00 0.00 0.00 64 966.0
20260505090415 49 326 0.0 0.9 0.00 0.00 0.00 65 966.0
20260505085915 50 326 0.0 0.9 0.00 0.00 0.00 66 966.0
20260505085415 50 324 0.0 0.0 0.00 0.00 0.00 63 966.0
20260505084916 50 322 0.0 0.9 0.00 0.00 0.00 61 966.0
20260505084417 51 322 0.0 0.9 0.00 0.00 0.00 63 966.0
20260505083915 50 320 0.9 0.9 0.00 0.00 0.00 65 966.0
20260505083415 51 316 0.0 0.9 0.00 0.00 0.00 62 966.0
20260505082915 51 300 0.0 0.0 0.00 0.00 0.00 63 966.0
20260505082415 51 285 0.0 0.9 0.00 0.00 0.00 62 966.0
20260505081916 53 281 0.0 0.9 0.00 0.00 0.00 58 966.0
20260505081415 53 279 0.0 0.0 0.00 0.00 0.00 54 966.0
20260505080915 52 278 0.0 0.9 0.00 0.00 0.00 57 966.0
20260505080416 53 279 0.0 0.9 0.00 0.00 0.00 59 966.0
20260505075915 55 277 0.0 0.0 0.00 0.00 0.00 51 966.0
20260505075415 54 275 0.0 0.9 0.00 0.00 0.00 53 966.0
20260505074915 54 275 0.0 1.7 0.00 0.00 0.00 54 966.0
20260505074416 55 274 0.0 0.9 0.00 0.00 0.00 52 965.0
20260505073915 54 271 0.0 0.9 0.00 0.00 0.00 53 965.0
20260505073415 54 270 0.0 0.9 0.00 0.00 0.00 54 965.0
20260505072916 55 271 0.0 0.9 0.00 0.00 0.00 55 965.0
20260505072415 55 271 0.0 0.9 0.00 0.00 0.00 52 965.0
20260505071915 55 272 0.0 0.9 0.00 0.00 0.00 54 965.0
20260505071415 55 271 0.9 0.9 0.00 0.00 0.00 53 966.0
20260505070915 55 271 0.9 1.7 0.00 0.00 0.00 52 965.0
20260505070415 55 269 0.0 0.9 0.00 0.00 0.00 52 965.0
20260505065915 56 265 0.0 1.7 0.00 0.00 0.00 50 965.0
20260505065415 56 266 0.9 0.9 0.00 0.00 0.00 52 965.0
20260505064915 55 268 0.0 1.7 0.00 0.00 0.00 54 965.0
20260505064415 56 266 0.0 2.6 0.00 0.00 0.00 54 965.0
20260505063916 56 259 1.7 1.7 0.00 0.00 0.00 51 965.0
20260505063415 56 272 0.0 0.0 0.00 0.00 0.00 54 965.0
20260505062915 56 267 0.0 0.9 0.00 0.00 0.00 54 964.0
20260505062415 56 255 0.9 1.7 0.00 0.00 0.00 51 965.0
20260505061916 57 251 0.9 1.7 0.00 0.00 0.00 53 965.0
20260505061415 57 254 0.0 1.7 0.00 0.00 0.00 52 965.0
20260505060915 57 256 0.9 1.7 0.00 0.00 0.00 50 965.0
20260505060415 58 256 0.9 1.7 0.00 0.00 0.00 50 964.0
20260505055915 59 248 0.9 2.6 0.00 0.00 0.00 47 965.0
20260505055415 58 253 1.7 1.7 0.00 0.00 0.00 50 965.0
20260505054915 58 259 0.0 1.7 0.00 0.00 0.00 49 964.0
20260505054415 58 256 0.9 1.7 0.00 0.00 0.00 52 965.0
20260505053915 59 246 0.0 0.9 0.00 0.00 0.00 49 965.0
20260505053416 59 246 0.0 1.7 0.00 0.00 0.00 50 964.0
20260505052915 59 245 0.9 1.7 0.00 0.00 0.00 47 964.0
20260505052415 58 245 0.0 1.7 0.00 0.00 0.00 52 964.0
20260505051915 58 248 2.6 4.3 0.00 0.00 0.00 51 964.0
20260505051415 59 219 1.7 1.7 0.00 0.00 0.00 50 965.0
20260505050915 59 222 0.0 0.9 0.00 0.00 0.00 50 964.0
20260505050416 60 232 0.9 1.7 0.00 0.00 0.00 52 964.0
20260505041416 71 139 2.6 4.3 0.00 0.00 0.00 28 964.0
20260505040915 72 171 0.9 6.1 0.00 0.00 0.00 27 964.0
20260505040416 71 168 5.2 7.0 0.00 0.00 0.00 28 963.0
20260505035915 72 181 5.2 8.7 0.00 0.00 0.00 28 963.0
20260505035416 71 182 2.6 6.1 0.00 0.00 0.00 30 964.0
20260505034915 72 165 4.3 7.0 0.00 0.00 0.00 28 963.0
20260505034415 70 18 3.5 6.1 0.00 0.00 0.00 28 963.0
20260505033916 71 10 3.5 7.0 0.00 0.00 0.00 29 963.0
20260505033415 71 12 2.6 5.2 0.00 0.00 0.00 30 963.0
20260505032915 71 15 3.5 5.2 0.00 0.00 0.00 31 963.0
20260505032415 71 11 4.3 5.2 0.00 0.00 0.00 30 963.0
20260505031916 71 6 1.7 2.6 0.00 0.00 0.00 31 963.0
20260505031416 71 4 2.6 2.6 0.00 0.00 0.00 30 963.0
20260505030915 71 356 1.7 2.6 0.00 0.00 0.00 30 963.0
20260505030415 71 2 1.7 2.6 0.00 0.00 0.00 29 963.0
20260505025915 73 5 2.6 2.6 0.00 0.00 0.00 28 962.0
20260505025415 72 11 2.6 5.2 0.00 0.00 0.00 28 963.0
20260505024915 73 7 2.6 7.0 0.00 0.00 0.00 33 962.0
20260505024415 74 35 6.1 11.3 0.00 0.00 0.00 29 963.0
20260505023915 73 0 3.5 5.2 0.00 0.00 0.00 28 962.0
20260505023416 74 7 2.6 7.0 0.00 0.00 0.00 28 963.0
20260505022915 72 5 4.3 5.2 0.00 0.00 0.00 31 962.0
20260505022415 72 350 1.7 4.3 0.00 0.00 0.00 35 963.0
20260505021915 73 353 1.7 7.0 0.00 0.00 0.00 31 962.0
20260505021415 74 354 2.6 6.1 0.00 0.00 0.00 27 962.0
20260505020916 73 0 4.3 7.8 0.00 0.00 0.00 31 962.0
20260505020415 74 352 3.5 6.1 0.00 0.00 0.00 26 962.0
20260505015915 73 339 0.0 4.3 0.00 0.00 0.00 34 962.0
20260505015416 73 340 0.0 1.7 0.00 0.00 0.00 38 962.0
20260505014915 73 345 0.9 6.1 0.00 0.00 0.00 28 962.0
20260505014416 73 337 1.7 4.3 0.00 0.00 0.00 29 962.0
20260505013915 71 337 0.9 2.6 0.00 0.00 0.00 34 962.0
20260505013416 72 341 1.7 4.3 0.00 0.00 0.00 31 962.0
20260505012915 71 343 2.6 4.3 0.00 0.00 0.00 36 962.0
20260505012415 71 331 0.0 1.7 0.00 0.00 0.00 35 962.0
20260505011915 72 331 0.0 1.7 0.00 0.00 0.00 33 962.0
20260505011415 73 336 0.0 1.7 0.00 0.00 0.00 33 962.0
20260505010916 73 337 0.9 1.7 0.00 0.00 0.00 31 962.0
20260505010415 73 332 0.0 1.7 0.00 0.00 0.00 36 962.0
20260505005915 74 338 0.9 2.6 0.00 0.00 0.00 30 962.0
20260505005415 75 344 0.9 2.6 0.00 0.00 0.00 28 962.0
20260505004915 75 336 0.9 2.6 0.00 0.00 0.00 30 962.0
20260505004416 75 341 1.7 2.6 0.00 0.00 0.00 32 962.0
20260505003915 72 334 0.9 1.7 0.00 0.00 0.00 32 962.0
20260505003415 72 345 1.7 2.6 0.00 0.00 0.00 37 962.0
20260505002915 74 346 2.6 2.6 0.00 0.00 0.00 31 962.0
20260505002416 74 347 3.5 6.1 0.00 0.00 0.00 33 962.0
20260505001915 73 342 1.7 6.1 0.00 0.00 0.00 29 962.0
20260505001415 73 339 0.0 1.7 0.00 0.00 0.00 42 962.0
20260505000915 72 340 0.9 2.6 0.00 0.00 0.00 35 962.0
20260505000416 72 346 2.6 2.6 0.00 0.00 0.00 35 962.0
20260504235915 73 342 2.6 2.6 0.00 0.00 0.00 35 962.0
20260504235415 73 344 2.6 4.3 0.00 0.00 0.00 40 962.0
20260504234915 72 343 2.6 2.6 0.00 0.00 0.00 37 963.0
20260504234415 74 345 2.6 5.2 0.00 0.00 0.00 31 962.0
20260504233916 73 341 0.9 1.7 0.00 0.00 0.00 38 962.0
20260504233416 73 341 0.0 0.9 0.00 0.00 0.00 37 963.0
20260504232915 72 342 2.6 4.3 0.00 0.00 0.00 39 963.0
20260504232415 71 341 1.7 6.1 0.00 0.00 0.00 43 963.0
20260504231916 72 343 1.7 4.3 0.00 0.00 0.00 43 963.0
20260504231415 72 347 2.6 4.3 0.00 0.00 0.00 32 963.0
20260504230916 73 341 0.9 4.3 0.00 0.00 0.00 36 962.0
20260504230415 73 347 2.6 6.1 0.00 0.00 0.00 33 963.0
20260504225915 72 350 4.3 4.3 0.00 0.00 0.00 34 963.0
20260504225415 73 345 2.6 4.3 0.00 0.00 0.00 33 962.0
20260504224915 72 343 2.6 5.2 0.00 0.00 0.00 31 962.0
20260504224415 74 348 3.5 4.3 0.00 0.00 0.00 35 962.0
20260504223916 75 337 2.6 5.2 0.00 0.00 0.00 32 963.0
20260504223415 72 340 0.9 1.7 0.00 0.00 0.00 31 963.0
20260504222915 72 347 2.6 2.6 0.00 0.00 0.00 35 963.0
20260504222415 74 342 1.7 2.6 0.00 0.00 0.00 30 962.0
20260504221915 73 344 2.6 2.6 0.00 0.00 0.00 37 962.0
20260504221416 74 344 2.6 7.0 0.00 0.00 0.00 35 963.0
20260504220915 73 351 2.6 5.2 0.00 0.00 0.00 32 963.0
20260504220415 76 351 3.5 5.2 0.00 0.00 0.00 30 963.0
20260504215916 74 345 2.6 4.3 0.00 0.00 0.00 28 963.0
20260504215415 72 346 2.6 6.1 0.00 0.00 0.00 35 963.0
20260504214916 73 347 2.6 4.3 0.00 0.00 0.00 40 963.0
20260504214415 74 351 4.3 5.2 0.00 0.00 0.00 29 963.0
20260504213925 72 350 4.3 6.1 0.00 0.00 0.00 37 963.0
20260504213417 72 351 4.3 5.2 0.00 0.00 0.00 37 963.0
20260504212915 72 352 3.5 5.2 0.00 0.00 0.00 35 963.0
20260504212416 72 350 4.3 5.2 0.00 0.00 0.00 34 963.0
20260504211915 74 345 2.6 4.3 0.00 0.00 0.00 38 963.0
20260504211415 74 349 3.5 6.1 0.00 0.00 0.00 33 963.0
20260504210915 73 349 2.6 5.2 0.00 0.00 0.00 36 963.0
20260504210416 73 343 1.7 2.6 0.00 0.00 0.00 39 963.0
20260504205915 72 344 3.5 4.3 0.00 0.00 0.00 34 963.0
20260504205416 73 345 3.5 6.1 0.00 0.00 0.00 35 963.0
20260504204916 73 351 4.3 6.1 0.00 0.00 0.00 35 963.0
20260504204415 74 350 4.3 5.2 0.00 0.00 0.00 31 963.0
20260504203915 74 345 2.6 5.2 0.00 0.00 0.00 30 963.0
20260504203424 73 351 4.3 5.2 0.00 0.00 0.00 31 964.0
20260504202916 71 346 3.5 6.1 0.00 0.00 0.00 35 963.0
20260504202415 70 347 3.5 5.2 0.00 0.00 0.00 40 964.0
20260504201915 71 348 4.3 5.2 0.00 0.00 0.00 36 964.0
20260504201415 69 345 3.5 4.3 0.00 0.00 0.00 43 964.0
20260504200915 69 346 3.5 4.3 0.00 0.00 0.00 41 963.0
20260504200416 69 341 2.6 2.6 0.00 0.00 0.00 44 964.0
20260504195915 69 338 1.7 2.6 0.00 0.00 0.00 46 964.0
20260504195416 68 337 0.9 1.7 0.00 0.00 0.00 49 964.0
20260504194915 69 337 0.9 0.9 0.00 0.00 0.00 48 964.0
20260504194417 69 338 1.7 1.7 0.00 0.00 0.00 48 964.0
20260504193916 69 340 1.7 2.6 0.00 0.00 0.00 43 964.0
20260504193419 69 339 1.7 2.6 0.00 0.00 0.00 46 964.0
20260504192915 70 336 0.9 0.9 0.00 0.00 0.00 51 964.0
20260504192415 71 334 0.0 2.6 0.00 0.00 0.00 43 964.0
20260504191915 71 337 0.9 1.7 0.00 0.00 0.00 40 964.0
20260504191415 70 336 0.0 0.9 0.00 0.00 0.00 40 964.0
20260504190915 71 336 0.9 2.6 0.00 0.00 0.00 39 964.0
20260504190415 70 336 0.0 0.9 0.00 0.00 0.00 39 964.0
20260504185915 71 336 0.0 0.9 0.00 0.00 0.00 39 964.0
20260504185415 72 339 0.9 1.7 0.00 0.00 0.00 39 964.0
20260504184915 70 334 0.0 0.0 0.00 0.00 0.00 40 964.0
20260504184415 70 336 0.0 0.0 0.00 0.00 0.00 39 965.0
20260504183916 69 336 0.0 0.0 0.00 0.00 0.00 41 965.0
20260504183416 68 337 0.0 0.9 0.00 0.00 0.00 41 964.0
20260504182915 67 336 0.0 0.9 0.00 0.00 0.00 42 965.0
20260504182416 65 336 0.0 0.0 0.00 0.00 0.00 47 965.0
20260504181916 66 339 0.0 0.0 0.00 0.00 0.00 44 964.0
20260504181416 66 337 0.0 0.0 0.00 0.00 0.00 43 965.0
20260504180915 62 339 0.0 0.0 0.00 0.00 0.00 46 965.0
20260504180415 62 341 0.0 0.0 0.00 0.00 0.00 50 965.0
20260504175916 61 340 0.0 0.0 0.00 0.00 0.00 55 965.0
20260504175415 61 340 0.0 0.0 0.00 0.00 0.00 56 965.0
20260504174915 62 338 0.0 0.0 0.00 0.00 0.00 58 965.0
20260504174416 62 337 0.0 0.0 0.00 0.00 0.00 52 965.0
20260504173915 60 339 0.0 0.0 0.00 0.00 0.00 58 965.0
20260504173415 61 341 0.0 0.0 0.00 0.00 0.00 60 965.0
20260504172916 61 339 0.0 0.0 0.00 0.00 0.00 58 965.0
20260504172416 61 338 0.0 0.0 0.00 0.00 0.00 56 965.0
20260504171916 60 339 0.0 0.0 0.00 0.00 0.00 62 965.0
20260504171416 61 337 0.0 0.0 0.00 0.00 0.00 59 965.0
20260504170915 60 337 0.0 0.0 0.00 0.00 0.00 59 965.0
20260504170417 59 342 0.0 0.0 0.00 0.00 0.00 60 965.0
20260504160416 59 340 0.0 0.0 0.00 0.00 0.00 63 965.0